Location: Newark
(53.2933°N, 6.3959°W)
Time: 23:24:39
(UTC+00:00)

Envisat - Pass Details

Date: 22 February 2020
Orbit: 764 x 766 km, 98.1° (Epoch: 06 April)

Event Time Altitude Azimuth Distance (km) Brightness Sun altitude
Rises 18:29:53 0° 181° (S) 3,223 6.4 -6.8°
Reaches altitude 10° 18:32:16 10° 187° (S) 2,302 5.7 -7.1°
Maximum altitude 18:37:10 48° 261° (W) 1,002 4.2 -7.9°
Drops below altitude 10° 18:42:06 10° 336° (NNW) 2,318 5.7 -8.6°
Sets 18:44:31 0° 342° (NNW) 3,249 6.4 -9.0°
